| time (UTC) | temp F | wind direction | speed MPH | gust MPH | rain 1hr in | rain 24hr in | rain mn in | humidity % | barometer mb |
| 20260505173537 | 79 | 241 | 7.0 | 10.0 | 0.00 | 0.00 | 0.00 | 45 | 1012.2 |
| 20260505173033 | 79 | 195 | 12.0 | 14.0 | 0.00 | 0.00 | 0.00 | 45 | 1012.3 |
| 20260505172531 | 79 | 225 | 11.0 | 14.0 | 0.00 | 0.00 | 0.00 | 45 | 1012.2 |
| 20260505172027 | 79 | 221 | 9.0 | 11.0 | 0.00 | 0.00 | 0.00 | 46 | 1012.1 |
| 20260505171522 | 78 | 256 | 8.0 | 9.0 | 0.00 | 0.00 | 0.00 | 47 | 1012.4 |
| 20260505171020 | 78 | 225 | 12.0 | 18.0 | 0.00 | 0.00 | 0.00 | 45 | 1012.4 |
| 20260505170516 | 78 | 247 | 4.0 | 5.0 | 0.00 | 0.00 | 0.00 | 49 | 1012.5 |
| 20260505170013 | 78 | 155 | 8.0 | 9.0 | 0.00 | 0.00 | 0.00 | 48 | 1012.6 |
| 20260505165508 | 78 | 326 | 5.0 | 8.0 | 0.00 | 0.00 | 0.00 | 51 | 1012.7 |
| 20260505165004 | 78 | 217 | 9.0 | 11.0 | 0.00 | 0.00 | 0.00 | 47 | 1012.6 |
| 20260505164500 | 79 | 282 | 5.0 | 8.0 | 0.00 | 0.00 | 0.00 | 48 | 1012.8 |
| 20260505163958 | 78 | 270 | 10.0 | 21.0 | 0.00 | 0.00 | 0.00 | 47 | 1012.8 |
| 20260505163457 | 78 | 187 | 6.0 | 9.0 | 0.00 | 0.00 | 0.00 | 47 | 1013.0 |
| 20260505162956 | 77 | 264 | 12.0 | 16.0 | 0.00 | 0.00 | 0.00 | 49 | 1012.8 |
| 20260505162451 | 78 | 227 | 9.0 | 13.0 | 0.00 | 0.00 | 0.00 | 47 | 1013.1 |
| 20260505161948 | 78 | 244 | 6.0 | 9.0 | 0.00 | 0.00 | 0.00 | 47 | 1012.8 |
| 20260505161444 | 77 | 245 | 7.0 | 10.0 | 0.00 | 0.00 | 0.00 | 50 | 1012.8 |
| 20260505160942 | 77 | 198 | 9.0 | 10.0 | 0.00 | 0.00 | 0.00 | 48 | 1012.8 |
| 20260505160440 | 77 | 240 | 8.0 | 9.0 | 0.00 | 0.00 | 0.00 | 49 | 1013.1 |
| 20260505152910 | 77 | 259 | 5.0 | 7.0 | 0.00 | 0.00 | 0.00 | 51 | 1012.8 |
| 20260505152407 | 77 | 250 | 9.0 | 11.0 | 0.00 | 0.00 | 0.00 | 49 | 1013.0 |
| 20260505151902 | 76 | 243 | 7.0 | 8.0 | 0.00 | 0.00 | 0.00 | 53 | 1012.9 |
| 20260505151358 | 77 | 260 | 7.0 | 9.0 | 0.00 | 0.00 | 0.00 | 49 | 1012.7 |
| 20260505150855 | 76 | 253 | 11.0 | 14.0 | 0.00 | 0.00 | 0.00 | 49 | 1012.9 |
| 20260505150352 | 76 | 225 | 7.0 | 9.0 | 0.00 | 0.00 | 0.00 | 51 | 1013.0 |
| 20260505140311 | 72 | 196 | 4.0 | 6.0 | 0.00 | 0.00 | 0.00 | 59 | 1013.1 |
| 20260505130235 | 66 | 259 | 8.0 | 10.0 | 0.00 | 0.00 | 0.00 | 65 | 1013.9 |
| 20260505124725 | 65 | 278 | 4.0 | 6.0 | 0.00 | 0.00 | 0.00 | 67 | 1013.9 |
| 20260505124222 | 64 | 230 | 2.0 | 2.0 | 0.00 | 0.00 | 0.00 | 69 | 1013.8 |
| 20260505123717 | 63 | 257 | 6.0 | 7.0 | 0.00 | 0.00 | 0.00 | 68 | 1013.8 |
| 20260505123215 | 64 | 239 | 5.0 | 7.0 | 0.00 | 0.00 | 0.00 | 68 | 1013.9 |
| 20260505122711 | 63 | 244 | 5.0 | 5.0 | 0.00 | 0.00 | 0.00 | 69 | 1013.9 |
| 20260505122209 | 63 | 180 | 6.0 | 7.0 | 0.00 | 0.00 | 0.00 | 69 | 1013.9 |
| 20260505121705 | 63 | 236 | 9.0 | 11.0 | 0.00 | 0.00 | 0.00 | 68 | 1014.0 |
| 20260505121201 | 62 | 231 | 6.0 | 8.0 | 0.00 | 0.00 | 0.00 | 69 | 1013.9 |
| 20260505120658 | 62 | 209 | 6.0 | 8.0 | 0.00 | 0.00 | 0.00 | 70 | 1013.8 |
| 20260505120153 | 62 | 240 | 4.0 | 5.0 | 0.00 | 0.00 | 0.00 | 71 | 1013.4 |
| 20260505115647 | 61 | 244 | 4.0 | 6.0 | 0.00 | 0.00 | 0.00 | 71 | 1013.7 |
| 20260505115146 | 61 | 247 | 7.0 | 8.0 | 0.00 | 0.00 | 0.00 | 71 | 1013.7 |
| 20260505114643 | 60 | 236 | 7.0 | 9.0 | 0.00 | 0.00 | 0.00 | 72 | 1013.6 |
| 20260505114139 | 60 | 261 | 4.0 | 6.0 | 0.00 | 0.00 | 0.00 | 74 | 1013.5 |
| 20260505113635 | 59 | 258 | 3.0 | 3.0 | 0.00 | 0.00 | 0.00 | 74 | 1013.6 |
| 20260505113132 | 60 | 270 | 6.0 | 7.0 | 0.00 | 0.00 | 0.00 | 74 | 1013.4 |
| 20260505112628 | 60 | 269 | 5.0 | 7.0 | 0.00 | 0.00 | 0.00 | 74 | 1013.5 |
| 20260505112126 | 59 | 234 | 9.0 | 10.0 | 0.00 | 0.00 | 0.00 | 74 | 1013.4 |
| 20260505111620 | 59 | 238 | 7.0 | 8.0 | 0.00 | 0.00 | 0.00 | 74 | 1013.1 |
| 20260505111116 | 59 | 283 | 5.0 | 7.0 | 0.00 | 0.00 | 0.00 | 74 | 1013.1 |
| 20260505110612 | 59 | 262 | 4.0 | 5.0 | 0.00 | 0.00 | 0.00 | 75 | 1013.0 |
| 20260505110110 | 59 | 245 | 4.0 | 5.0 | 0.00 | 0.00 | 0.00 | 76 | 1012.9 |
| 20260505102045 | 58 | 230 | 4.0 | 5.0 | 0.00 | 0.00 | 0.00 | 77 | 1012.3 |
| 20260505101544 | 58 | 241 | 2.0 | 2.0 | 0.00 | 0.00 | 0.00 | 77 | 1012.5 |
| 20260505101040 | 59 | 256 | 6.0 | 8.0 | 0.00 | 0.00 | 0.00 | 76 | 1012.5 |
| 20260505100536 | 59 | 225 | 3.0 | 5.0 | 0.00 | 0.00 | 0.00 | 75 | 1012.3 |
| 20260505100033 | 59 | 254 | 5.0 | 6.0 | 0.00 | 0.00 | 0.00 | 76 | 1012.6 |
| 20260505095530 | 59 | 241 | 6.0 | 9.0 | 0.00 | 0.00 | 0.00 | 75 | 1012.5 |
| 20260505095026 | 59 | 234 | 5.0 | 6.0 | 0.00 | 0.00 | 0.00 | 75 | 1012.4 |
| 20260505094523 | 59 | 226 | 5.0 | 6.0 | 0.00 | 0.00 | 0.00 | 75 | 1012.2 |
| 20260505094019 | 59 | 261 | 5.0 | 6.0 | 0.00 | 0.00 | 0.00 | 75 | 1012.4 |
| 20260505093515 | 59 | 247 | 5.0 | 7.0 | 0.00 | 0.00 | 0.00 | 75 | 1012.2 |
| 20260505093013 | 59 | 254 | 3.0 | 3.0 | 0.00 | 0.00 | 0.00 | 75 | 1012.2 |
| 20260505092510 | 59 | 277 | 5.0 | 6.0 | 0.00 | 0.00 | 0.00 | 75 | 1012.4 |
| 20260505092009 | 59 | 265 | 3.0 | 5.0 | 0.00 | 0.00 | 0.00 | 75 | 1012.2 |
| 20260505091505 | 59 | 280 | 3.0 | 3.0 | 0.00 | 0.00 | 0.00 | 75 | 1012.2 |
| 20260505091003 | 59 | 246 | 3.0 | 3.0 | 0.00 | 0.00 | 0.00 | 74 | 1012.2 |
| 20260505090501 | 60 | 240 | 4.0 | 5.0 | 0.00 | 0.00 | 0.00 | 74 | 1012.0 |
| 20260505085958 | 60 | 219 | 5.0 | 6.0 | 0.00 | 0.00 | 0.00 | 74 | 1012.1 |
| 20260505085456 | 60 | 261 | 3.0 | 3.0 | 0.00 | 0.00 | 0.00 | 74 | 1012.0 |
| 20260505084954 | 60 | 297 | 1.0 | 2.0 | 0.00 | 0.00 | 0.00 | 73 | 1012.2 |
| 20260505084452 | 60 | 223 | 1.0 | 2.0 | 0.00 | 0.00 | 0.00 | 72 | 1012.1 |
| 20260505083949 | 61 | 243 | 3.0 | 3.0 | 0.00 | 0.00 | 0.00 | 72 | 1012.2 |
| 20260505083447 | 61 | 265 | 2.0 | 2.0 | 0.00 | 0.00 | 0.00 | 72 | 1012.2 |
| 20260505082943 | 61 | 256 | 2.0 | 2.0 | 0.00 | 0.00 | 0.00 | 71 | 1012.2 |
| 20260505082439 | 61 | 227 | 3.0 | 3.0 | 0.00 | 0.00 | 0.00 | 72 | 1012.1 |
| 20260505081936 | 61 | 45 | 1.0 | 1.0 | 0.00 | 0.00 | 0.00 | 71 | 1012.3 |
| 20260505081433 | 61 | 193 | 4.0 | 6.0 | 0.00 | 0.00 | 0.00 | 71 | 1012.0 |
| 20260505080929 | 61 | 300 | 2.0 | 2.0 | 0.00 | 0.00 | 0.00 | 72 | 1012.1 |
| 20260505080425 | 61 | 321 | 2.0 | 2.0 | 0.00 | 0.00 | 0.00 | 71 | 1012.0 |
| 20260505075921 | 61 | 173 | 2.0 | 2.0 | 0.00 | 0.00 | 0.00 | 73 | 1012.0 |
| 20260505075418 | 60 | 243 | 3.0 | 3.0 | 0.00 | 0.00 | 0.00 | 73 | 1012.0 |
| 20260505074915 | 61 | 233 | 2.0 | 2.0 | 0.00 | 0.00 | 0.00 | 73 | 1012.0 |
| 20260505074412 | 61 | 149 | 1.0 | 2.0 | 0.00 | 0.00 | 0.00 | 72 | 1012.1 |
| 20260505073909 | 61 | 221 | 5.0 | 6.0 | 0.00 | 0.00 | 0.00 | 71 | 1011.7 |
| 20260505073407 | 61 | 216 | 3.0 | 3.0 | 0.00 | 0.00 | 0.00 | 72 | 1011.8 |
| 20260505072904 | 61 | 206 | 6.0 | 7.0 | 0.00 | 0.00 | 0.00 | 72 | 1011.7 |
| 20260505072400 | 61 | 255 | 4.0 | 5.0 | 0.00 | 0.00 | 0.00 | 72 | 1011.7 |
| 20260505071856 | 61 | 251 | 4.0 | 5.0 | 0.00 | 0.00 | 0.00 | 72 | 1011.8 |
| 20260505071353 | 61 | 228 | 2.0 | 2.0 | 0.00 | 0.00 | 0.00 | 72 | 1011.8 |
| 20260505070851 | 60 | 278 | 2.0 | 2.0 | 0.00 | 0.00 | 0.00 | 72 | 1011.6 |
| 20260505070347 | 61 | 230 | 2.0 | 2.0 | 0.00 | 0.00 | 0.00 | 72 | 1011.9 |
| 20260505065842 | 60 | 263 | 2.0 | 2.0 | 0.00 | 0.00 | 0.00 | 73 | 1012.1 |
| 20260505065340 | 61 | 115 | 0.0 | 1.0 | 0.00 | 0.00 | 0.00 | 73 | 1012.0 |
| 20260505064837 | 61 | 112 | 1.0 | 1.0 | 0.00 | 0.00 | 0.00 | 72 | 1011.8 |
| 20260505064334 | 61 | 111 | 0.0 | 0.0 | 0.00 | 0.00 | 0.00 | 72 | 1012.1 |
| 20260505063832 | 61 | 260 | 2.0 | 2.0 | 0.00 | 0.00 | 0.00 | 71 | 1012.0 |
| 20260505063327 | 61 | 109 | 0.0 | 1.0 | 0.00 | 0.00 | 0.00 | 71 | 1011.9 |
| 20260505062824 | 62 | 174 | 1.0 | 2.0 | 0.00 | 0.00 | 0.00 | 70 | 1012.2 |
| 20260505062322 | 62 | 144 | 1.0 | 2.0 | 0.00 | 0.00 | 0.00 | 71 | 1012.0 |
| 20260505061818 | 62 | 247 | 3.0 | 3.0 | 0.00 | 0.00 | 0.00 | 70 | 1011.9 |
| 20260505061317 | 63 | 255 | 3.0 | 3.0 | 0.00 | 0.00 | 0.00 | 69 | 1011.9 |
| 20260505060814 | 63 | 284 | 2.0 | 2.0 | 0.00 | 0.00 | 0.00 | 69 | 1011.8 |
| 20260505060311 | 63 | 255 | 3.0 | 3.0 | 0.00 | 0.00 | 0.00 | 69 | 1012.0 |
| 20260505055806 | 63 | 228 | 2.0 | 2.0 | 0.00 | 0.00 | 0.00 | 69 | 1012.1 |
| 20260505055303 | 63 | 258 | 3.0 | 5.0 | 0.00 | 0.00 | 0.00 | 68 | 1012.2 |
| 20260505054800 | 63 | 271 | 3.0 | 5.0 | 0.00 | 0.00 | 0.00 | 68 | 1012.0 |
| 20260505054257 | 63 | 216 | 5.0 | 6.0 | 0.00 | 0.00 | 0.00 | 68 | 1012.1 |
| 20260505053755 | 63 | 248 | 4.0 | 6.0 | 0.00 | 0.00 | 0.00 | 68 | 1012.1 |
| 20260505053252 | 63 | 218 | 4.0 | 5.0 | 0.00 | 0.00 | 0.00 | 68 | 1011.8 |
| 20260505052749 | 63 | 237 | 3.0 | 3.0 | 0.00 | 0.00 | 0.00 | 67 | 1012.0 |
| 20260505052246 | 63 | 261 | 4.0 | 5.0 | 0.00 | 0.00 | 0.00 | 67 | 1012.2 |
| 20260505051743 | 63 | 249 | 3.0 | 5.0 | 0.00 | 0.00 | 0.00 | 68 | 1012.1 |
| 20260505051241 | 63 | 254 | 5.0 | 6.0 | 0.00 | 0.00 | 0.00 | 67 | 1011.9 |
| 20260505050738 | 63 | 221 | 3.0 | 3.0 | 0.00 | 0.00 | 0.00 | 67 | 1012.1 |
| 20260505050237 | 63 | 221 | 5.0 | 7.0 | 0.00 | 0.00 | 0.00 | 66 | 1012.2 |
| 20260505041706 | 63 | 275 | 3.0 | 3.0 | 0.00 | 0.00 | 0.00 | 65 | 1011.9 |
| 20260505041204 | 62 | 265 | 4.0 | 5.0 | 0.00 | 0.00 | 0.00 | 65 | 1011.9 |
| 20260505040701 | 62 | 235 | 3.0 | 3.0 | 0.00 | 0.00 | 0.00 | 66 | 1011.9 |
| 20260505040158 | 63 | 202 | 3.0 | 3.0 | 0.00 | 0.00 | 0.00 | 65 | 1011.9 |
| 20260505035655 | 63 | 235 | 4.0 | 6.0 | 0.00 | 0.00 | 0.00 | 64 | 1011.7 |
| 20260505035151 | 62 | 246 | 4.0 | 5.0 | 0.00 | 0.00 | 0.00 | 64 | 1011.7 |
| 20260505034647 | 62 | 254 | 4.0 | 5.0 | 0.00 | 0.00 | 0.00 | 64 | 1011.6 |
| 20260505034145 | 62 | 262 | 3.0 | 3.0 | 0.00 | 0.00 | 0.00 | 64 | 1011.9 |
| 20260505033641 | 62 | 267 | 4.0 | 7.0 | 0.00 | 0.00 | 0.00 | 63 | 1011.8 |
| 20260505033139 | 62 | 251 | 4.0 | 5.0 | 0.00 | 0.00 | 0.00 | 63 | 1011.7 |
| 20260505032637 | 63 | 275 | 3.0 | 5.0 | 0.00 | 0.00 | 0.00 | 63 | 1011.8 |
| 20260505032133 | 63 | 271 | 3.0 | 3.0 | 0.00 | 0.00 | 0.00 | 62 | 1011.7 |
| 20260505031630 | 63 | 237 | 5.0 | 6.0 | 0.00 | 0.00 | 0.00 | 62 | 1011.7 |
| 20260505031126 | 63 | 265 | 2.0 | 2.0 | 0.00 | 0.00 | 0.00 | 62 | 1011.8 |
| 20260505030624 | 63 | 240 | 2.0 | 3.0 | 0.00 | 0.00 | 0.00 | 61 | 1011.7 |
| 20260505030119 | 63 | 185 | 1.0 | 2.0 | 0.00 | 0.00 | 0.00 | 62 | 1011.9 |
| 20260505025615 | 63 | 226 | 2.0 | 2.0 | 0.00 | 0.00 | 0.00 | 61 | 1011.9 |
| 20260505025114 | 63 | 209 | 2.0 | 2.0 | 0.00 | 0.00 | 0.00 | 61 | 1012.0 |
| 20260505024611 | 63 | 223 | 1.0 | 1.0 | 0.00 | 0.00 | 0.00 | 61 | 1011.8 |
| 20260505024109 | 63 | 257 | 2.0 | 2.0 | 0.00 | 0.00 | 0.00 | 61 | 1011.8 |
| 20260505023606 | 64 | 264 | 2.0 | 2.0 | 0.00 | 0.00 | 0.00 | 60 | 1011.9 |
| 20260505023103 | 64 | 244 | 2.0 | 3.0 | 0.00 | 0.00 | 0.00 | 60 | 1012.1 |
| 20260505022600 | 64 | 188 | 4.0 | 5.0 | 0.00 | 0.00 | 0.00 | 59 | 1011.9 |
| 20260505022057 | 64 | 254 | 3.0 | 3.0 | 0.00 | 0.00 | 0.00 | 59 | 1012.0 |
| 20260505021554 | 64 | 187 | 3.0 | 5.0 | 0.00 | 0.00 | 0.00 | 58 | 1012.1 |
| 20260505021051 | 64 | 213 | 3.0 | 3.0 | 0.00 | 0.00 | 0.00 | 59 | 1011.9 |
| 20260505020550 | 64 | 262 | 3.0 | 3.0 | 0.00 | 0.00 | 0.00 | 59 | 1011.9 |
| 20260505020048 | 64 | 260 | 2.0 | 2.0 | 0.00 | 0.00 | 0.00 | 59 | 1012.1 |
| 20260505015545 | 64 | 211 | 3.0 | 3.0 | 0.00 | 0.00 | 0.00 | 59 | 1012.0 |
| 20260505015041 | 64 | 160 | 1.0 | 1.0 | 0.00 | 0.00 | 0.00 | 59 | 1012.0 |
| 20260505014538 | 64 | 175 | 2.0 | 2.0 | 0.00 | 0.00 | 0.00 | 59 | 1011.8 |
| 20260505014036 | 65 | 176 | 2.0 | 2.0 | 0.00 | 0.00 | 0.00 | 58 | 1012.1 |
| 20260505013532 | 64 | 213 | 1.0 | 1.0 | 0.00 | 0.00 | 0.00 | 59 | 1012.1 |
| 20260505013030 | 65 | 127 | 1.0 | 1.0 | 0.00 | 0.00 | 0.00 | 58 | 1011.8 |
| 20260505012528 | 65 | 106 | 0.0 | 0.0 | 0.00 | 0.00 | 0.00 | 58 | 1011.6 |
| 20260505012025 | 65 | 158 | 3.0 | 3.0 | 0.00 | 0.00 | 0.00 | 57 | 1011.7 |
| 20260505011520 | 66 | 280 | 2.0 | 3.0 | 0.00 | 0.00 | 0.00 | 57 | 1011.7 |
| 20260505011018 | 66 | 119 | 3.0 | 3.0 | 0.00 | 0.00 | 0.00 | 57 | 1011.5 |
| 20260505010513 | 66 | 247 | 2.0 | 3.0 | 0.00 | 0.00 | 0.00 | 57 | 1011.4 |
| 20260505010010 | 65 | 85 | 0.0 | 1.0 | 0.00 | 0.00 | 0.00 | 57 | 1011.3 |
| 20260505005506 | 65 | 10 | 1.0 | 2.0 | 0.00 | 0.00 | 0.00 | 58 | 1011.2 |
| 20260505005004 | 65 | 239 | 3.0 | 3.0 | 0.00 | 0.00 | 0.00 | 58 | 1011.4 |
| 20260505004501 | 65 | 190 | 2.0 | 2.0 | 0.00 | 0.00 | 0.00 | 57 | 1011.4 |
| 20260505003958 | 65 | 257 | 2.0 | 2.0 | 0.00 | 0.00 | 0.00 | 58 | 1011.3 |
| 20260505003455 | 66 | 74 | 0.0 | 1.0 | 0.00 | 0.00 | 0.00 | 57 | 1011.3 |
| 20260505002950 | 66 | 170 | 4.0 | 5.0 | 0.00 | 0.00 | 0.00 | 56 | 1011.7 |
| 20260505002447 | 66 | 72 | 1.0 | 1.0 | 0.00 | 0.00 | 0.00 | 56 | 1011.3 |
| 20260505001945 | 66 | 203 | 3.0 | 3.0 | 0.00 | 0.00 | 0.00 | 55 | 1011.3 |
| 20260505001442 | 67 | 99 | 0.0 | 1.0 | 0.00 | 0.00 | 0.00 | 54 | 1011.3 |
| 20260505000939 | 67 | 224 | 3.0 | 3.0 | 0.00 | 0.00 | 0.00 | 53 | 1011.3 |
| 20260505000437 | 68 | 120 | 2.0 | 3.0 | 0.00 | 0.00 | 0.00 | 52 | 1011.3 |
| 20260504235934 | 69 | 51 | 1.0 | 1.0 | 0.00 | 0.00 | 0.00 | 51 | 1011.2 |
| 20260504235431 | 69 | 45 | 0.0 | 1.0 | 0.00 | 0.00 | 0.00 | 49 | 1011.3 |
| 20260504234927 | 70 | 303 | 2.0 | 3.0 | 0.00 | 0.00 | 0.00 | 47 | 1011.2 |
| 20260504234425 | 70 | 192 | 1.0 | 2.0 | 0.00 | 0.00 | 0.00 | 46 | 1010.9 |
| 20260504233921 | 71 | 182 | 6.0 | 7.0 | 0.00 | 0.00 | 0.00 | 46 | 1010.9 |
| 20260504233417 | 71 | 219 | 5.0 | 7.0 | 0.00 | 0.00 | 0.00 | 46 | 1011.1 |
| 20260504232914 | 71 | 189 | 3.0 | 3.0 | 0.00 | 0.00 | 0.00 | 46 | 1010.8 |
| 20260504232411 | 71 | 288 | 3.0 | 5.0 | 0.00 | 0.00 | 0.00 | 45 | 1011.0 |
| 20260504231908 | 72 | 187 | 3.0 | 3.0 | 0.00 | 0.00 | 0.00 | 45 | 1011.1 |
| 20260504231404 | 72 | 203 | 4.0 | 5.0 | 0.00 | 0.00 | 0.00 | 45 | 1011.0 |
| 20260504230901 | 72 | 149 | 5.0 | 6.0 | 0.00 | 0.00 | 0.00 | 45 | 1011.1 |
| 20260504230358 | 72 | 226 | 2.0 | 2.0 | 0.00 | 0.00 | 0.00 | 45 | 1011.3 |
| 20260504225857 | 72 | 128 | 1.0 | 2.0 | 0.00 | 0.00 | 0.00 | 45 | 1011.0 |
| 20260504225353 | 71 | 55 | 1.0 | 1.0 | 0.00 | 0.00 | 0.00 | 46 | 1011.2 |
| 20260504224851 | 72 | 126 | 4.0 | 5.0 | 0.00 | 0.00 | 0.00 | 45 | 1011.2 |
| 20260504224347 | 72 | 159 | 3.0 | 3.0 | 0.00 | 0.00 | 0.00 | 45 | 1011.4 |
| 20260504223844 | 72 | 190 | 7.0 | 10.0 | 0.00 | 0.00 | 0.00 | 44 | 1011.4 |
| 20260504223339 | 72 | 196 | 5.0 | 6.0 | 0.00 | 0.00 | 0.00 | 45 | 1011.4 |
| 20260504222836 | 72 | 292 | 3.0 | 5.0 | 0.00 | 0.00 | 0.00 | 45 | 1011.2 |
| 20260504222333 | 72 | 214 | 4.0 | 6.0 | 0.00 | 0.00 | 0.00 | 45 | 1011.0 |
| 20260504221832 | 72 | 226 | 4.0 | 5.0 | 0.00 | 0.00 | 0.00 | 45 | 1011.1 |
| 20260504221328 | 72 | 271 | 5.0 | 8.0 | 0.00 | 0.00 | 0.00 | 44 | 1011.2 |
| 20260504220825 | 73 | 165 | 5.0 | 6.0 | 0.00 | 0.00 | 0.00 | 44 | 1011.2 |
| 20260504220322 | 73 | 263 | 4.0 | 6.0 | 0.00 | 0.00 | 0.00 | 43 | 1011.2 |
| 20260504215819 | 74 | 245 | 8.0 | 10.0 | 0.00 | 0.00 | 0.00 | 44 | 1011.1 |
| 20260504215315 | 73 | 203 | 6.0 | 7.0 | 0.00 | 0.00 | 0.00 | 43 | 1011.1 |
| 20260504214811 | 73 | 242 | 5.0 | 7.0 | 0.00 | 0.00 | 0.00 | 45 | 1010.9 |
| 20260504214309 | 73 | 261 | 6.0 | 7.0 | 0.00 | 0.00 | 0.00 | 43 | 1011.1 |
| 20260504213805 | 73 | 292 | 3.0 | 6.0 | 0.00 | 0.00 | 0.00 | 44 | 1011.1 |
| 20260504213301 | 73 | 195 | 9.0 | 13.0 | 0.00 | 0.00 | 0.00 | 43 | 1011.3 |
| 20260504212758 | 73 | 256 | 8.0 | 9.0 | 0.00 | 0.00 | 0.00 | 44 | 1011.0 |
| 20260504212254 | 73 | 186 | 7.0 | 8.0 | 0.00 | 0.00 | 0.00 | 43 | 1011.1 |
| 20260504211752 | 73 | 222 | 4.0 | 6.0 | 0.00 | 0.00 | 0.00 | 44 | 1011.1 |
| 20260504211248 | 73 | 208 | 10.0 | 14.0 | 0.00 | 0.00 | 0.00 | 43 | 1011.2 |
| 20260504210746 | 73 | 246 | 11.0 | 13.0 | 0.00 | 0.00 | 0.00 | 43 | 1011.3 |
| 20260504210243 | 73 | 237 | 4.0 | 6.0 | 0.00 | 0.00 | 0.00 | 43 | 1011.3 |
| 20260504205739 | 73 | 209 | 9.0 | 13.0 | 0.00 | 0.00 | 0.00 | 43 | 1011.2 |
| 20260504205238 | 73 | 217 | 5.0 | 7.0 | 0.00 | 0.00 | 0.00 | 45 | 1011.1 |
| 20260504204736 | 73 | 209 | 10.0 | 13.0 | 0.00 | 0.00 | 0.00 | 47 | 1011.1 |
| 20260504204234 | 72 | 227 | 4.0 | 5.0 | 0.00 | 0.00 | 0.00 | 45 | 1011.3 |
| 20260504203733 | 73 | 234 | 8.0 | 9.0 | 0.00 | 0.00 | 0.00 | 44 | 1011.1 |
| 20260504203230 | 73 | 211 | 10.0 | 15.0 | 0.00 | 0.00 | 0.00 | 45 | 1011.2 |
| 20260504202729 | 72 | 254 | 7.0 | 8.0 | 0.00 | 0.00 | 0.00 | 44 | 1011.4 |
| 20260504202227 | 72 | 216 | 8.0 | 9.0 | 0.00 | 0.00 | 0.00 | 44 | 1011.6 |
| 20260504201724 | 73 | 257 | 8.0 | 11.0 | 0.00 | 0.00 | 0.00 | 45 | 1011.6 |
| 20260504201221 | 72 | 256 | 7.0 | 8.0 | 0.00 | 0.00 | 0.00 | 44 | 1011.4 |
| 20260504200719 | 72 | 201 | 5.0 | 7.0 | 0.00 | 0.00 | 0.00 | 44 | 1011.4 |
| 20260504200214 | 71 | 252 | 5.0 | 7.0 | 0.00 | 0.00 | 0.00 | 47 | 1011.7 |
| 20260504195711 | 72 | 262 | 7.0 | 10.0 | 0.00 | 0.00 | 0.00 | 48 | 1011.7 |
| 20260504195207 | 72 | 263 | 10.0 | 13.0 | 0.00 | 0.00 | 0.00 | 43 | 1011.9 |
| 20260504194704 | 71 | 283 | 5.0 | 6.0 | 0.00 | 0.00 | 0.00 | 43 | 1011.9 |
| 20260504194200 | 72 | 255 | 6.0 | 9.0 | 0.00 | 0.00 | 0.00 | 45 | 1012.1 |
| 20260504193657 | 72 | 217 | 9.0 | 11.0 | 0.00 | 0.00 | 0.00 | 45 | 1012.2 |
| 20260504193155 | 71 | 209 | 8.0 | 9.0 | 0.00 | 0.00 | 0.00 | 44 | 1012.3 |
| 20260504192652 | 71 | 271 | 6.0 | 8.0 | 0.00 | 0.00 | 0.00 | 45 | 1012.4 |
| 20260504192150 | 71 | 243 | 7.0 | 11.0 | 0.00 | 0.00 | 0.00 | 44 | 1012.5 |
| 20260504191648 | 71 | 267 | 5.0 | 6.0 | 0.00 | 0.00 | 0.00 | 44 | 1012.4 |
| 20260504191139 | 70 | 249 | 10.0 | 11.0 | 0.00 | 0.00 | 0.00 | 45 | 1012.5 |
| 20260504190635 | 71 | 230 | 9.0 | 11.0 | 0.00 | 0.00 | 0.00 | 47 | 1012.5 |
| 20260504190132 | 70 | 254 | 8.0 | 9.0 | 0.00 | 0.00 | 0.00 | 44 | 1012.6 |
| 20260504185628 | 70 | 245 | 6.0 | 8.0 | 0.00 | 0.00 | 0.00 | 44 | 1012.9 |
| 20260504185125 | 71 | 225 | 12.0 | 14.0 | 0.00 | 0.00 | 0.00 | 46 | 1012.9 |
| 20260504184621 | 70 | 190 | 4.0 | 6.0 | 0.00 | 0.00 | 0.00 | 46 | 1012.8 |
| 20260504184116 | 70 | 275 | 9.0 | 10.0 | 0.00 | 0.00 | 0.00 | 43 | 1013.0 |
| 20260504183613 | 70 | 250 | 9.0 | 10.0 | 0.00 | 0.00 | 0.00 | 45 | 1013.1 |
| 20260504183111 | 70 | 245 | 7.0 | 9.0 | 0.00 | 0.00 | 0.00 | 45 | 1013.1 |
| 20260504182608 | 70 | 236 | 4.0 | 5.0 | 0.00 | 0.00 | 0.00 | 44 | 1013.2 |
| 20260504182105 | 69 | 182 | 12.0 | 14.0 | 0.00 | 0.00 | 0.00 | 43 | 1013.2 |
| 20260504181603 | 70 | 250 | 8.0 | 9.0 | 0.00 | 0.00 | 0.00 | 45 | 1013.2 |
| 20260504181100 | 70 | 225 | 14.0 | 17.0 | 0.00 | 0.00 | 0.00 | 44 | 1013.4 |
| 20260504180559 | 69 | 298 | 9.0 | 11.0 | 0.00 | 0.00 | 0.00 | 46 | 1013.2 |
| 20260504180058 | 69 | 258 | 5.0 | 6.0 | 0.00 | 0.00 | 0.00 | 48 | 1013.5 |
| 20260504175555 | 69 | 242 | 12.0 | 15.0 | 0.00 | 0.00 | 0.00 | 45 | 1013.2 |
| 20260504175051 | 68 | 212 | 6.0 | 8.0 | 0.00 | 0.00 | 0.00 | 46 | 1013.5 |
| 20260504174549 | 69 | 250 | 11.0 | 14.0 | 0.00 | 0.00 | 0.00 | 44 | 1013.7 |
| 20260504174046 | 68 | 230 | 10.0 | 13.0 | 0.00 | 0.00 | 0.00 | 44 | 1013.8 |